Location: Newark
(51.3318°N, 0.0053°E)
Time: 12:36:58
(UTC+00:00)

MOZHAYETS 4 - Pass Details

Date: 27 June 2022
Orbit: 660 x 679 km, 98.2° (Epoch: 11 August)

Event Time Altitude Azimuth Distance (km) Brightness Sun altitude
Rises 00:28:14 0° 111° (ESE) 3,030 10.9 -15.1°
Reaches altitude 10° 00:31:19 10° 89° (E) 2,118 10.4 -15.1°
Maximum altitude 00:33:54 15° 55° (NE) 1,798 10.5 -15.0°
Drops below altitude 10° 00:36:30 10° 20° (NNE) 2,119 11.6 -15.0°
Sets 00:39:35 0° 358° (N) 3,035 12.8 -14.9°
